Regional Weather Roundup
Issued by NWS Raleigh/Durham, NC

Home | Current Version | Previous Version | Text Only | Print | Product List | Glossary On
Versions: 1 2 3 4 5 6 7 8 9 10 11 12 13 14 15 16 17 18 19 20 21 22 23 24 25 26
000
ASUS42 KRAH 291210
RWRRAH
NORTH CAROLINA WEATHER ROUNDUP
NATIONAL WEATHER SERVICE RALEIGH NC
800 AM EDT THU JUN 29 2017

NOTE: "FAIR" INDICATES FEW OR NO CLOUDS BELOW 12,000 FEET WITH NO
SIGNIFICANT WEATHER AND/OR OBSTRUCTIONS TO VISIBILITY.

NCZ001-053-055-056-065-067-291300-
WESTERN NORTH CAROLINA

CITY           SKY/WX    TMP DP  RH WIND       PRES   REMARKS
ASHEVILLE      SUNNY     64  58  80 VRB5      30.26S
JEFFERSON      CLOUDY    64  56  78 CALM      30.28S
MORGANTON      MOSUNNY   62  62 100 CALM      30.27S
HICKORY        MOSUNNY   64  62  93 CALM      30.22S
RUTHERFORDTON  MOSUNNY   65  64  96 CALM      30.24S
MOUNT AIRY     CLOUDY    65  59  79 CALM      30.24S
BOONE          NOT AVBL
$$

NCZ021-022-025-041-071-084-088-291300-
CENTRAL NORTH CAROLINA

CITY           SKY/WX    TMP DP  RH WIND       PRES   REMARKS
CHARLOTTE      PTSUNNY   70  61  73 S3        30.23R
GREENSBORO     PTSUNNY   67  62  84 SW7       30.22R
WINSTON-SALEM  CLOUDY    68  58  70 CALM      30.23R
RALEIGH-DURHAM CLOUDY    68  62  81 W3        30.23R
FORT BRAGG     SUNNY     68  60  76 CALM      30.21R
FAYETTEVILLE   SUNNY     70  63  78 CALM      30.22R
BURLINGTON     CLOUDY    64  61  90 CALM      30.22R
LAURINBURG     SUNNY     68  64  87 CALM      30.23R
$$

NCZ011-015-027-028-043-044-047-080-103-291300-
NORTHEASTERN NORTH CAROLINA

CITY           SKY/WX    TMP DP  RH WIND       PRES   REMARKS
ROCKY MT-WILSO CLOUDY    66  64  93 CALM      30.22S
GREENVILLE     CLOUDY    66  64  94 CALM      30.24R
WASHINGTON       N/A    N/A N/A N/A CALM      30.24R
ELIZABETH CITY MOSUNNY   72  69  90 SW3       30.23R
MANTEO         MOSUNNY   73  66  78 S5        30.25R
CAPE HATTERAS  NOT AVBL
$$

NCZ078-087-090-091-093-098-101-291300-
SOUTHEASTERN NORTH CAROLINA

CITY           SKY/WX    TMP DP  RH WIND       PRES   REMARKS
LUMBERTON      SUNNY     70  63  78 CALM      30.22R
GOLDSBORO      SUNNY     68  67  96 CALM      30.22R
KINSTON        SUNNY     66  64  94 CALM      30.24R
KENANSVILLE    SUNNY     64  61  88 CALM      30.24R
NEW BERN       MOSUNNY   71  68  90 CALM      30.24R
CHERRY POINT   SUNNY     73  65  75 CALM      30.24R
BEAUFORT       MOSUNNY   76  69  79 NE5       30.23R
JACKSONVILLE   SUNNY     73  67  81 NE3       30.22R
WILMINGTON     MOSUNNY   72  64  76 CALM      30.22R
$$





USA.gov is the U.S. government's official web portal to all federal, state and local government web resources and services.